Wind_Speed
33 32 32 31 30 30 29 29 29 29 29 29 29 29 29 28 28 28 28 28 28 28 29 28 28 27 26 26 26 27 27 27 27 27 27 26 26 26 26 26 27 27 28
35 34 34 32 32 31 31 31 31 31 30 30 29 29 29 30 29 29 29 29 29 29 30 30 29 28 27 27 27 27 28 29 29 28 28 28 27 28 28 28 29 29 30
37 36 35 33 33 33 33 33 32 32 32 31 31 30 30 30 31 30 30 30 30 30 30 30 30 30 29 29 29 29 29 30 30 29 29 29 29 29 29 30 31 31 30
38 37 36 35 34 33 33 33 32 32 33 32 32 31 31 31 31 30 30 30 30 30 30 30 31 31 31 31 31 31 31 31 31 31 31 31 31 31 31 31 31 31 31
38 38 38 36 36 35 34 34 34 33 33 33 33 33 32 32 31 31 31 31 31 31 31 31 31 32 32 32 32 32 32 32 32 32 32 33 33 33 33 33 33 33 33
39 39 38 37 37 36 36 35 36 35 34 33 33 34 33 33 32 33 33 33 33 33 32 32 32 32 33 33 33 33 34 33 33 34 34 35 35 35 34 35 35 36 35
39 39 38 38 38 37 37 36 36 35 34 34 34 34 34 33 33 34 34 34 34 34 33 33 33 33 33 34 34 35 35 35 36 36 36 37 37 36 36 37 36 36 36
39 39 38 38 38 37 37 37 36 36 35 35 35 35 34 34 33 34 35 35 35 34 34 34 34 35 34 34 35 35 36 37 38 38 38 39 39 38 38 39 37 37 38
38 39 39 38 38 37 37 36 36 36 36 35 35 35 35 35 35 35 35 35 35 35 35 35 36 36 35 36 37 37 37 38 38 39 39 39 40 40 40 40 40 39 40
38 39 38 38 38 37 37 36 36 36 36 36 36 36 35 35 35 34 34 34 34 35 36 36 36 37 37 37 37 38 38 39 40 40 40 40 41 42 42 42 42 41 41
38 38 38 38 38 38 37 36 36 36 37 36 36 35 35 34 34 34 34 34 34 36 36 37 37 37 38 38 39 39 40 40 41 42 42 41 41 42 43 43 43 42 42
38 37 38 39 39 38 37 36 36 36 35 35 35 34 34 34 34 34 35 35 35 35 36 37 38 38 39 39 40 41 42 41 42 42 42 42 42 43 44 44 43 43 42
38 39 39 39 39 38 37 37 37 36 35 35 34 34 34 34 35 35 36 36 36 35 36 37 38 39 40 40 41 42 42 41 42 41 41 41 41 41 43 43 42 42 42
39 39 39 39 39 39 38 37 36 36 36 36 35 35 35 36 36 36 37 37 37 37 37 38 39 40 40 41 41 41 41 41 41 41 41 41 40 40 41 42 42 42 43
40 39 38 38 38 39 39 38 37 37 38 38 37 37 37 37 37 37 38 38 38 38 39 39 40 40 41 41 40 40 40 40 41 40 40 40 39 39 39 40 40 40 41
40 39 38 37 38 38 39 39 38 38 39 39 39 38 38 38 38 39 39 38 39 40 40 40 41 41 41 40 40 39 39 40 40 39 38 38 38 39 40 40 40 40 39
40 39 38 37 37 38 39 40 40 40 41 41 40 40 39 40 40 40 40 40 40 41 41 41 41 42 41 41 40 40 40 40 39 39 39 38 38 39 40 40 41 40 39
40 40 39 38 37 37 39 40 40 41 41 40 40 40 40 41 40 40 40 40 41 41 41 42 41 41 41 41 40 40 40 39 39 39 39 39 39 39 39 39 40 40 39
40 40 40 39 38 37 37 39 40 39 39 39 40 40 40 41 41 41 40 40 40 41 41 42 41 41 40 40 40 40 40 39 39 39 39 39 39 39 39 40 40 40 40
40 40 40 40 39 38 37 38 38 39 39 39 39 40 40 41 42 41 41 41 41 41 41 40 40 40 40 40 40 40 40 40 40 39 39 39 39 39 40 40 40 39 39
41 41 40 41 40 39 39 38 38 38 39 39 39 40 41 41 41 42 42 41 41 41 40 39 39 40 40 39 39 39 39 39 40 40 40 40 41 41 40 40 40 39 38
41 41 41 41 42 41 41 40 39 38 39 40 39 39 40 41 41 41 41 41 41 41 41 41 40 40 40 39 39 39 39 38 39 39 40 40 40 40 41 40 39 38 38
40 41 42 42 43 42 41 41 41 40 39 39 39 39 39 39 40 40 40 40 41 41 41 41 40 40 40 39 39 38 38 38 38 39 39 40 40 40 39 38 37 37 37
40 40 41 42 42 42 42 41 41 40 39 39 40 40 40 40 40 40 40 39 39 39 40 40 40 40 39 39 38 38 39 39 39 39 39 39 38 38 38 37 37 36 36
39 39 40 41 41 41 42 41 40 40 40 40 40 40 40 40 41 41 40 40 39 39 40 40 39 39 39 38 37 37 38 38 38 39 39 38 37 37 37 38 37 37 37
38 38 39 39 40 40 40 40 40 40 40 40 40 40 40 40 40 40 40 40 40 40 40 39 38 38 37 37 37 37 37 38 38 38 38 38 37 37 36 36 37 37 36
Wind_Direction
253 254 256 258 259 260 261 263 263 264 266 265 265 267 269 269 268 268 270 271 271 272 272 273 273 273 274 274 275 276 276 276 278 279 279 280 281 282 284 287 288 288 290
253 254 255 257 258 259 261 261 264 265 267 265 266 267 268 269 269 268 270 271 272 272 271 271 272 271 272 273 274 276 277 277 278 279 279 279 280 282 283 285 286 288 289
252 253 254 256 257 258 260 261 263 266 266 266 266 267 269 269 269 269 271 271 272 272 271 271 271 270 271 272 273 275 277 278 278 279 279 279 280 280 283 284 286 287 287
250 251 252 254 255 258 259 261 262 266 265 264 265 266 268 269 269 269 270 270 271 272 272 271 271 270 270 271 272 273 276 277 278 279 279 279 279 280 282 283 284 286 288
248 249 251 252 254 257 259 260 262 265 265 264 264 265 267 267 267 268 270 270 271 271 271 271 271 271 270 271 273 274 276 277 278 279 279 279 279 280 281 282 283 286 288
248 248 250 251 254 256 258 261 263 265 264 264 265 264 265 266 265 267 270 270 271 270 270 271 271 270 270 272 274 276 276 276 277 279 279 279 279 280 280 281 283 285 287
249 248 249 251 252 255 258 260 262 264 264 265 265 265 265 266 266 268 270 271 271 271 271 271 271 271 272 273 275 276 275 275 276 279 280 279 280 280 280 282 283 285 287
249 248 249 250 252 255 258 260 262 263 264 265 265 266 265 265 267 269 272 273 272 271 271 271 271 272 274 274 275 275 276 276 277 279 280 280 280 280 280 280 282 284 285
250 249 249 250 252 255 257 260 262 263 264 265 266 267 266 266 267 268 270 272 272 271 271 272 272 272 273 274 275 275 276 277 278 279 280 280 280 280 281 281 281 283 285
250 250 249 250 252 254 255 258 261 263 264 266 267 267 267 269 269 269 269 270 270 270 271 271 271 272 272 273 275 276 276 277 278 279 279 279 280 280 280 281 282 283 284
253 252 250 251 253 254 256 258 260 263 265 266 267 266 266 267 269 269 270 271 271 272 271 272 272 272 273 274 275 276 278 278 278 279 279 279 279 279 279 280 281 282 283
254 253 253 253 253 254 256 257 259 261 262 263 264 265 265 266 267 269 271 272 272 273 273 273 274 274 275 275 276 277 278 278 278 278 279 279 280 281 281 281 281 281 283
253 255 254 254 253 254 255 256 258 257 258 262 264 263 265 267 268 270 272 273 273 273 274 274 275 275 276 277 278 278 278 278 277 278 279 279 280 282 284 284 283 282 282
254 255 254 253 253 254 254 254 255 257 258 261 263 263 264 266 269 271 272 272 273 273 274 275 276 277 277 278 278 278 279 279 278 279 280 280 280 282 284 285 284 284 284
254 254 254 254 254 254 254 254 255 257 258 260 262 263 264 266 268 270 271 272 273 273 274 276 277 277 278 278 277 278 278 279 280 280 280 280 281 282 283 284 285 285 285
253 253 253 254 254 253 254 254 255 258 259 261 261 262 263 264 267 268 269 271 273 274 274 276 277 277 277 277 278 278 279 280 281 280 280 281 282 283 284 285 286 286 286
254 253 253 253 254 253 254 256 257 259 260 260 261 261 263 265 267 268 269 271 273 275 275 275 276 276 276 276 277 278 279 280 281 280 280 281 282 284 285 286 286 287 288
254 254 253 253 253 254 256 257 258 259 259 260 260 262 264 265 267 268 269 271 273 275 276 276 276 275 275 276 277 277 278 278 279 280 280 280 282 283 285 286 287 286 286
254 254 253 253 253 255 257 258 257 258 258 260 261 263 264 265 266 268 271 273 274 275 277 277 276 275 275 276 277 277 277 277 277 279 279 280 281 283 285 286 287 286 284
254 254 253 253 253 255 258 259 258 259 259 261 263 264 265 266 267 268 271 273 274 276 277 276 276 275 276 277 276 277 276 276 276 277 279 279 280 282 284 286 287 286 285
253 253 253 253 253 255 258 260 260 261 260 261 264 266 266 267 268 269 271 273 275 276 275 275 276 276 277 275 275 276 275 275 275 277 278 280 281 282 284 286 286 285 284
253 252 253 253 254 255 257 259 260 261 262 262 263 265 266 268 269 270 271 273 274 274 274 274 275 276 277 275 275 275 275 274 275 277 278 280 281 282 283 284 284 284 284
254 253 253 253 255 256 257 258 260 261 261 261 263 265 266 267 269 270 272 273 274 275 275 275 274 275 277 275 275 274 274 274 275 277 277 280 281 282 283 283 282 283 283
254 254 253 254 255 255 256 258 260 261 261 262 264 265 265 266 267 269 271 272 273 274 275 274 274 274 275 274 273 275 274 274 275 277 278 279 280 282 282 282 282 283 285
252 251 252 254 254 255 255 257 259 259 261 262 263 265 266 266 267 268 270 272 272 273 273 273 273 273 272 272 273 275 275 275 276 277 278 280 281 281 282 282 282 283 283
250 250 251 253 254 254 256 257 259 261 262 263 264 265 265 266 267 267 269 271 272 272 272 272 273 273 272 272 273 274 276 276 276 277 278 279 281 281 281 281 282 283 283
Height
5799 5800 5801 5802 5803 5804 5804 5805 5805 5804 5804 5804 5804 5805 5804 5804 5804 5804 5804 5803 5803 5802 5802 5802 5801 5801 5801 5801 5800 5800 5799 5798 5798 5797 5796 5795 5795 5794 5793 5792 5790 5789 5787
5791 5793 5794 5795 5796 5797 5797 5798 5798 5798 5798 5798 5798 5798 5798 5798 5798 5798 5797 5797 5796 5796 5796 5795 5795 5795 5795 5794 5794 5794 5793 5792 5791 5791 5790 5789 5788 5788 5787 5785 5784 5783 5781
5783 5784 5786 5787 5788 5789 5790 5790 5790 5791 5791 5791 5791 5791 5791 5791 5791 5791 5791 5790 5790 5789 5789 5789 5788 5788 5788 5788 5788 5787 5787 5786 5785 5784 5784 5783 5782 5781 5780 5779 5777 5776 5774
5774 5775 5777 5779 5780 5781 5782 5783 5783 5783 5783 5783 5784 5784 5784 5784 5784 5784 5784 5783 5783 5783 5782 5782 5781 5781 5781 5781 5781 5780 5780 5779 5779 5778 5777 5776 5775 5774 5773 5772 5770 5769 5767
5764 5767 5769 5770 5772 5773 5774 5775 5776 5776 5776 5776 5776 5776 5777 5777 5777 5777 5777 5776 5776 5775 5775 5775 5775 5774 5774 5774 5774 5773 5773 5772 5772 5771 5770 5769 5768 5767 5765 5764 5763 5761 5759
5755 5758 5760 5761 5763 5765 5766 5767 5768 5768 5768 5768 5768 5768 5769 5769 5769 5769 5768 5768 5768 5768 5768 5768 5767 5767 5767 5767 5767 5766 5765 5765 5764 5763 5762 5761 5760 5759 5758 5756 5755 5753 5751
5746 5748 5750 5752 5754 5756 5757 5759 5759 5760 5760 5760 5760 5761 5761 5761 5761 5761 5760 5760 5760 5760 5760 5760 5760 5760 5760 5759 5759 5758 5758 5757 5756 5755 5754 5753 5752 5750 5749 5748 5746 5744 5742
5736 5739 5741 5743 5745 5747 5748 5750 5751 5752 5752 5752 5752 5753 5753 5754 5753 5753 5752 5752 5752 5752 5752 5751 5752 5752 5752 5751 5751 5750 5750 5749 5748 5747 5746 5744 5743 5741 5740 5738 5737 5735 5733
5727 5729 5731 5734 5736 5738 5739 5741 5742 5743 5743 5744 5744 5744 5744 5745 5745 5746 5745 5745 5744 5744 5744 5743 5743 5743 5743 5743 5742 5742 5741 5740 5739 5738 5736 5735 5733 5732 5730 5728 5727 5725 5723
5717 5720 5722 5724 5726 5728 5730 5732 5733 5734 5734 5735 5735 5735 5736 5736 5736 5737 5738 5737 5736 5736 5735 5735 5735 5734 5734 5734 5733 5732 5731 5730 5729 5728 5726 5725 5723 5721 5720 5718 5716 5714 5712
5708 5710 5712 5715 5717 5719 5721 5723 5724 5725 5725 5726 5726 5726 5727 5727 5727 5728 5729 5729 5729 5728 5727 5726 5726 5725 5724 5724 5723 5722 5721 5720 5719 5717 5716 5714 5713 5711 5709 5706 5704 5703 5701
5699 5701 5703 5705 5707 5709 5711 5713 5714 5715 5716 5717 5717 5718 5718 5719 5719 5719 5720 5720 5720 5720 5719 5718 5717 5716 5715 5714 5713 5712 5710 5709 5708 5706 5705 5704 5702 5700 5697 5695 5693 5691 5689
5690 5692 5693 5695 5697 5699 5701 5703 5704 5706 5707 5708 5709 5709 5710 5711 5711 5711 5711 5711 5711 5711 5710 5709 5707 5706 5705 5704 5702 5700 5699 5698 5696 5695 5694 5692 5691 5688 5686 5684 5681 5679 5677
5681 5682 5684 5686 5688 5689 5691 5693 5695 5696 5697 5699 5700 5700 5701 5702 5702 5702 5702 5702 5701 5702 5701 5700 5698 5696 5695 5693 5691 5690 5688 5687 5685 5684 5683 5681 5679 5677 5675 5673 5670 5668 5666
5671 5672 5674 5676 5677 5680 5681 5683 5685 5686 5688 5689 5690 5691 5692 5693 5693 5693 5692 5692 5692 5691 5692 5690 5688 5686 5684 5682 5680 5679 5678 5676 5675 5673 5671 5670 5668 5666 5664 5662 5659 5657 5655
5661 5663 5664 5666 5667 5670 5672 5673 5675 5677 5678 5679 5680 5681 5682 5683 5683 5683 5682 5682 5681 5681 5680 5680 5678 5676 5674 5672 5670 5668 5667 5665 5664 5662 5661 5659 5657 5656 5654 5651 5649 5647 5645
5650 5652 5654 5656 5658 5660 5661 5663 5665 5667 5668 5669 5670 5671 5672 5673 5673 5673 5672 5672 5671 5670 5669 5669 5666 5664 5663 5661 5659 5658 5656 5655 5654 5652 5651 5649 5647 5646 5643 5641 5639 5637 5634
5640 5642 5644 5646 5647 5649 5651 5653 5655 5656 5658 5659 5660 5661 5662 5662 5662 5662 5662 5661 5660 5659 5658 5657 5656 5654 5652 5651 5649 5648 5646 5645 5644 5642 5641 5639 5638 5636 5634 5632 5629 5627 5625
5629 5631 5633 5636 5637 5639 5641 5643 5644 5646 5647 5648 5649 5650 5651 5651 5651 5651 5650 5650 5649 5648 5647 5646 5644 5643 5642 5640 5638 5637 5636 5634 5633 5632 5631 5629 5628 5626 5624 5622 5619 5617 5615
5618 5620 5623 5625 5627 5629 5630 5632 5633 5635 5636 5637 5638 5638 5639 5640 5640 5640 5639 5639 5638 5637 5635 5634 5633 5632 5631 5629 5628 5627 5625 5624 5623 5622 5620 5619 5618 5616 5614 5612 5610 5607 5605
5607 5609 5612 5614 5616 5618 5620 5621 5623 5624 5625 5626 5627 5627 5628 5628 5628 5628 5628 5628 5627 5625 5624 5623 5622 5621 5620 5619 5617 5616 5615 5614 5613 5612 5610 5609 5608 5606 5603 5601 5599 5597 5595
5597 5599 5601 5603 5605 5607 5609 5611 5612 5613 5614 5615 5616 5616 5617 5617 5617 5617 5617 5616 5615 5614 5613 5612 5611 5610 5609 5608 5607 5605 5604 5604 5603 5602 5600 5599 5597 5595 5593 5591 5589 5587 5585
5586 5588 5590 5592 5594 5596 5598 5600 5601 5602 5603 5604 5605 5605 5606 5606 5606 5606 5605 5604 5604 5602 5602 5601 5600 5599 5598 5598 5596 5595 5594 5593 5592 5591 5590 5588 5586 5584 5582 5580 5578 5577 5575
5575 5577 5579 5581 5583 5585 5587 5589 5590 5591 5592 5593 5593 5594 5595 5595 5594 5594 5594 5593 5592 5592 5591 5590 5589 5588 5587 5586 5585 5584 5583 5582 5581 5580 5579 5578 5576 5574 5572 5570 5568 5567 5565
5564 5566 5568 5570 5572 5574 5576 5577 5579 5580 5581 5582 5582 5583 5583 5583 5584 5583 5583 5582 5582 5581 5579 5579 5578 5577 5576 5576 5575 5574 5573 5572 5571 5570 5569 5568 5566 5564 5562 5560 5558 5557 5555
5553 5555 5557 5559 5561 5563 5565 5566 5568 5569 5571 5571 5571 5572 5572 5572 5572 5571 5571 5571 5570 5570 5569 5568 5567 5567 5566 5565 5565 5564 5563 5562 5560 5560 5558 5557 5555 5553 5553 5551 5549 5547 5545